SIA732 WSSS-VTSP

Flight info

Callsign SIA732
Flight time N/A
Altitude 38000
Route AROSO5B AROSO Y513 KALIL Y501 RINBA Y502 DUBAX R325 URGAD URGAD1D
Aircraft B38M/M-SDE1FGHILORVWXY/HB1

Departure

Time 2026-05-07 09:09
Airport Singapore Changi Airport (WSSS)

Arrival

Time N/A
Airport Phuket International Airport (VTSP)
Time Latitude Longitude Altitude Speed Heading
2026-05-07 08:55 1.35585 103.99330 32 ft 0 kts 352°
2026-05-07 09:00 1.35569 103.99332 29 ft 2 kts 352°
2026-05-07 09:00 1.35553 103.99335 32 ft 2 kts 352°
2026-05-07 09:00 1.35537 103.99337 32 ft 2 kts 352°
2026-05-07 09:01 1.35520 103.99339 30 ft 2 kts 352°
2026-05-07 09:01 1.35504 103.99340 30 ft 2 kts 17°
2026-05-07 09:01 1.35489 103.99334 31 ft 2 kts 30°
2026-05-07 09:01 1.35476 103.99325 30 ft 2 kts 41°
2026-05-07 09:02 1.35465 103.99313 32 ft 2 kts 52°
2026-05-07 09:02 1.35455 103.99300 30 ft 2 kts 52°
2026-05-07 09:02 1.35451 103.99295 31 ft 0 kts 52°
2026-05-07 09:05 1.35458 103.99304 31 ft 4 kts 52°
2026-05-07 09:06 1.35492 103.99348 32 ft 12 kts 52°
2026-05-07 09:06 1.35559 103.99427 32 ft 18 kts 34°
2026-05-07 09:06 1.35679 103.99479 32 ft 19 kts 21°
2026-05-07 09:06 1.35799 103.99530 31 ft 18 kts 22°
2026-05-07 09:07 1.35915 103.99578 31 ft 18 kts 22°
2026-05-07 09:07 1.36026 103.99625 31 ft 17 kts 22°
2026-05-07 09:07 1.36117 103.99666 31 ft 10 kts 42°
2026-05-07 09:07 1.36123 103.99732 30 ft 10 kts 120°
2026-05-07 09:08 1.36078 103.99784 29 ft 10 kts 139°
2026-05-07 09:08 1.36017 103.99812 29 ft 10 kts 160°
2026-05-07 09:08 1.35954 103.99797 30 ft 9 kts 204°
2026-05-07 09:08 1.35886 103.99768 31 ft 23 kts 202°
2026-05-07 09:09 1.35501 103.99605 33 ft 96 kts 203°
2026-05-07 09:09 1.34693 103.99267 39 ft 156 kts 208°
2026-05-07 09:09 1.33690 103.98815 687 ft 153 kts 201°
2026-05-07 09:09 1.32702 103.98403 1369 ft 159 kts 202°
2026-05-07 09:10 1.31649 103.97965 1998 ft 165 kts 202°
2026-05-07 09:10 1.30537 103.97497 2485 ft 186 kts 202°
2026-05-07 09:10 1.29251 103.96956 2768 ft 214 kts 202°
2026-05-07 09:10 1.27801 103.96345 2965 ft 237 kts 202°
2026-05-07 09:11 1.26242 103.95690 3431 ft 247 kts 202°
2026-05-07 09:11 1.24564 103.95344 4097 ft 250 kts 175°
2026-05-07 09:11 1.22962 103.95886 4939 ft 249 kts 144°
2026-05-07 09:11 1.21834 103.97184 5719 ft 251 kts 119°
2026-05-07 09:12 1.21079 103.98768 6451 ft 255 kts 113°
2026-05-07 09:12 1.20405 104.00406 7224 ft 256 kts 112°
2026-05-07 09:12 1.19752 104.02071 7940 ft 259 kts 104°
2026-05-07 09:12 1.19701 104.03866 8659 ft 263 kts 77°
2026-05-07 09:13 1.20491 104.05525 9223 ft 276 kts 50°
2026-05-07 09:13 1.22085 104.06672 9649 ft 292 kts 26°
2026-05-07 09:13 1.23973 104.07429 10099 ft 305 kts 16°
2026-05-07 09:13 1.26170 104.07462 10214 ft 331 kts 348°
2026-05-07 09:14 1.28439 104.06762 10389 ft 351 kts 342°
2026-05-07 09:14 1.30786 104.05932 10760 ft 362 kts 341°
2026-05-07 09:14 1.33137 104.05093 11327 ft 365 kts 341°
2026-05-07 09:14 1.35540 104.04255 11963 ft 367 kts 342°
2026-05-07 09:15 1.37968 104.03428 12590 ft 370 kts 342°
2026-05-07 09:15 1.40416 104.02603 13211 ft 374 kts 342°
2026-05-07 09:15 1.42897 104.01776 13796 ft 377 kts 343°
2026-05-07 09:15 1.45369 104.00973 14342 ft 380 kts 343°
2026-05-07 09:16 1.47895 104.00160 14932 ft 384 kts 343°
2026-05-07 09:16 1.50446 103.99339 15527 ft 387 kts 343°
2026-05-07 09:16 1.53019 103.98510 16083 ft 390 kts 343°
2026-05-07 09:16 1.55615 103.97672 16634 ft 393 kts 343°
2026-05-07 09:17 1.58229 103.96826 17156 ft 397 kts 343°
2026-05-07 09:17 1.60866 103.95972 17687 ft 400 kts 343°
2026-05-07 09:17 1.63519 103.95113 18178 ft 403 kts 343°
2026-05-07 09:17 1.66162 103.94256 18613 ft 406 kts 343°
2026-05-07 09:18 1.68857 103.93383 19065 ft 408 kts 343°
2026-05-07 09:18 1.71567 103.92506 19497 ft 411 kts 343°
2026-05-07 09:18 1.74273 103.91541 19896 ft 416 kts 335°
2026-05-07 09:18 1.76660 103.89884 20292 ft 423 kts 316°
2026-05-07 09:19 1.78549 103.87621 20748 ft 425 kts 309°
2026-05-07 09:19 1.80331 103.85256 21143 ft 429 kts 308°
2026-05-07 09:19 1.82120 103.82856 21515 ft 432 kts 308°
2026-05-07 09:19 1.83912 103.80477 21883 ft 435 kts 308°
2026-05-07 09:20 1.85754 103.78066 22268 ft 438 kts 309°
2026-05-07 09:20 1.87617 103.75650 22655 ft 440 kts 309°
2026-05-07 09:20 1.89496 103.73222 23014 ft 443 kts 309°
2026-05-07 09:20 1.91384 103.70779 23354 ft 446 kts 309°
2026-05-07 09:21 1.93283 103.68315 23649 ft 448 kts 309°
2026-05-07 09:21 1.95183 103.65845 23961 ft 450 kts 309°
2026-05-07 09:21 1.97092 103.63362 24275 ft 451 kts 309°
2026-05-07 09:21 1.98982 103.60904 24565 ft 453 kts 309°
2026-05-07 09:22 2.00906 103.58402 24854 ft 455 kts 308°
2026-05-07 09:22 2.02838 103.55891 25134 ft 457 kts 309°
2026-05-07 09:22 2.04778 103.53368 25413 ft 458 kts 308°
2026-05-07 09:22 2.06725 103.50836 25693 ft 460 kts 308°
2026-05-07 09:23 2.08678 103.48296 26005 ft 461 kts 308°
2026-05-07 09:23 2.10638 103.45748 26268 ft 463 kts 308°
2026-05-07 09:23 2.12603 103.43192 26531 ft 465 kts 308°
2026-05-07 09:23 2.14485 103.40557 26771 ft 468 kts 300°
2026-05-07 09:24 2.15677 103.37576 27008 ft 470 kts 287°
2026-05-07 09:24 2.16580 103.34430 27301 ft 471 kts 286°
2026-05-07 09:24 2.17455 103.31267 27528 ft 473 kts 285°
2026-05-07 09:24 2.18335 103.28090 27759 ft 475 kts 286°
2026-05-07 09:25 2.19231 103.24902 27986 ft 477 kts 286°
2026-05-07 09:25 2.20143 103.21714 28221 ft 478 kts 286°
2026-05-07 09:25 2.21071 103.18513 28451 ft 480 kts 287°
2026-05-07 09:25 2.22007 103.15310 28667 ft 481 kts 287°
2026-05-07 09:26 2.22949 103.12095 28880 ft 483 kts 287°
2026-05-07 09:26 2.23895 103.08871 29088 ft 484 kts 287°
2026-05-07 09:26 2.24844 103.05636 29288 ft 486 kts 287°
2026-05-07 09:26 2.25783 103.02434 29495 ft 487 kts 287°
2026-05-07 09:27 2.26737 102.99177 29712 ft 489 kts 287°
2026-05-07 09:27 2.27693 102.95909 29891 ft 490 kts 287°
2026-05-07 09:27 2.29607 102.89367 30333 ft 490 kts 287°
2026-05-07 09:28 2.30563 102.86100 30605 ft 488 kts 287°
2026-05-07 09:28 2.31514 102.82850 30874 ft 487 kts 287°
2026-05-07 09:28 2.32464 102.79599 31119 ft 486 kts 287°
2026-05-07 09:28 2.33400 102.76401 31402 ft 486 kts 287°
2026-05-07 09:29 2.34346 102.73165 31701 ft 484 kts 287°
2026-05-07 09:29 2.35290 102.69937 31984 ft 483 kts 287°
2026-05-07 09:29 2.36232 102.66716 32247 ft 483 kts 287°
2026-05-07 09:29 2.37174 102.63494 32524 ft 482 kts 287°
2026-05-07 09:30 2.38114 102.60280 32812 ft 481 kts 287°
2026-05-07 09:30 2.39051 102.57074 33101 ft 480 kts 287°
2026-05-07 09:30 2.39985 102.53876 33391 ft 479 kts 287°
2026-05-07 09:30 2.40919 102.50680 33670 ft 479 kts 287°
2026-05-07 09:31 2.41851 102.47489 33932 ft 478 kts 287°
2026-05-07 09:31 2.42770 102.44345 34194 ft 477 kts 287°
2026-05-07 09:31 2.43700 102.41163 34441 ft 476 kts 287°
2026-05-07 09:31 2.44631 102.37986 34700 ft 476 kts 288°
2026-05-07 09:32 2.45892 102.34944 34925 ft 474 kts 300°
2026-05-07 09:32 2.47702 102.32197 35164 ft 472 kts 310°
2026-05-07 09:32 2.49942 102.29807 35385 ft 471 kts 321°
2026-05-07 09:32 2.52494 102.27761 35624 ft 469 kts 323°
2026-05-07 09:33 2.55078 102.25778 35863 ft 469 kts 323°
2026-05-07 09:33 2.57675 102.23804 36081 ft 469 kts 323°
2026-05-07 09:33 2.60229 102.21852 36329 ft 468 kts 323°
2026-05-07 09:33 2.62805 102.19866 36571 ft 467 kts 323°
2026-05-07 09:34 2.65369 102.17873 36816 ft 466 kts 323°
2026-05-07 09:34 2.67919 102.15878 37049 ft 466 kts 323°
2026-05-07 09:34 2.70465 102.13880 37278 ft 465 kts 323°
2026-05-07 09:34 2.73012 102.11879 37505 ft 465 kts 323°
2026-05-07 09:35 2.75549 102.09885 37731 ft 464 kts 323°
2026-05-07 09:35 2.80658 102.05871 37758 ft 467 kts 323°
2026-05-07 09:36 2.85713 102.01901 37743 ft 463 kts 323°
2026-05-07 09:36 2.90766 101.97933 37748 ft 460 kts 323°
2026-05-07 09:37 2.95790 101.93987 37746 ft 458 kts 323°
2026-05-07 09:37 3.00794 101.90057 37757 ft 457 kts 323°
2026-05-07 09:38 3.05760 101.86156 37766 ft 457 kts 323°
2026-05-07 09:38 3.10772 101.82219 37769 ft 459 kts 323°
2026-05-07 09:39 3.15805 101.78263 37758 ft 461 kts 323°
2026-05-07 09:39 3.20859 101.74291 37768 ft 463 kts 323°
2026-05-07 09:40 3.25937 101.70299 37765 ft 465 kts 323°
2026-05-07 09:40 3.30997 101.66321 37767 ft 467 kts 323°
2026-05-07 09:41 3.36551 101.63008 37779 ft 465 kts 337°
2026-05-07 09:41 3.42487 101.60433 37774 ft 465 kts 338°
2026-05-07 09:42 3.48425 101.57865 37785 ft 465 kts 338°
2026-05-07 09:42 3.54298 101.55272 37787 ft 464 kts 337°
2026-05-07 09:43 3.60187 101.52650 37789 ft 463 kts 337°
2026-05-07 09:43 3.66059 101.50035 37792 ft 462 kts 337°
2026-05-07 09:44 3.71924 101.47424 37790 ft 460 kts 337°
2026-05-07 09:44 3.77772 101.44820 37796 ft 460 kts 337°
2026-05-07 09:45 3.83572 101.42239 37797 ft 459 kts 337°